Regional Weather Roundup
Issued by NWS San Diego, CA

Home | Current Version | Previous Version | Text Only | Print | Product List | Glossary On
Versions: 1 2 3 4 5 6 7 8 9 10 11 12 13 14 15 16 17 18 19 20 21 22 23 24 25 26 27 28 29 30 31 32 33 34 35 36 37 38 39 40 41 42 43 44 45 46 47 48 49 50
000
ASUS46 KSGX 222310
RWRSGX

SAN DIEGO HOURLY WEATHER ROUNDUP
NATIONAL WEATHER SERVICE SAN DIEGO CA
400 PM PDT WED OCT 22 2014

NOTE: "FAIR" INDICATES FEW OR NO CLOUDS BELOW 12,000 FEET WITH NO
SIGNIFICANT WEATHER AND/OR OBSTRUCTIONS TO VISIBILITY.

CAZ042-043-060-061-PZZ750-775-230000-

GREATER SAN DIEGO AREA

CITY           SKY/WX    TMP DP  RH WIND       PRES   REMARKS
LINDBERGH FLD  PTSUNNY   76  61  59 NW9       29.91S
POINT LOMA       N/A     71  62  74 NW14        N/A
NATIONAL CITY    N/A     77  63  61 NW2       29.90S
CHULA VISTA      N/A     76  66  70 W7        29.84R
IMPERIAL BEACH MOSUNNY   71  65  81 W7        29.91S
BROWN FIELD    MOSUNNY   75  58  55 VRB5      29.91R
MIRAMAR MCAS   MOSUNNY   77  58  51 NW7       29.90S
MONTGOMERY FLD MOSUNNY   78  58  49 W6        29.90S

$$

NORTH SAN DIEGO COUNTY

CITY           SKY/WX    TMP DP  RH WIND       PRES   REMARKS
CAMP PENDLETON MOSUNNY   78  57  48 SW9       29.88S
OCEANSIDE AP   SUNNY     76  62  62 W9        29.89S
OCEANSIDE HBR    N/A     71  65  80 W7        29.92S
VISTA            N/A     78  59  51 W2        29.88S
CARLSBAD       SUNNY     74  59  59 W8        29.90R
DEL MAR          N/A     74  66  74 CALM      29.93S
LA JOLLA SCRIP   N/A     70  66  85 CALM      29.88S
FALLBROOK        N/A     80  53  38 SW2       29.88S
ESCONDIDO        N/A     81  54  39 CALM      29.92R
SAN MARCOS       N/A     80  57  46 CALM      29.88S
POWAY            N/A     82  60  47 CALM      29.91R

$$

EAST SAN DIEGO COUNTY

CITY           SKY/WX    TMP DP  RH WIND       PRES   REMARKS
RAMONA         SUNNY     82  48  30 W9        29.93R
SANTEE LAKES     N/A     81  56  41 W1        29.90S
LA MESA          N/A     79  61  52 NW3       29.84S
JAMUL            N/A     80  57  44 W1        29.90R
DESCANSO N       N/A     82  29  15 W3        29.83R
MT. LAGUNA OBS   N/A     72  20  14 SE3       29.72S
CAMPO            N/A     84  28  13 SW16      29.93S

$$

ORANGE COUNTY AND THE LOS ANGELES BASIN

CITY           SKY/WX    TMP DP  RH WIND       PRES   REMARKS
JOHN WAYNE AP  MOSUNNY   79  59  50 SW9       29.89S
LAKE FOREST FR   N/A     84  51  31 CALM      29.80R
SANTA ANA        N/A     84  62  46 CALM      29.84S
HUNTINGTON BCH   N/A     75  67  76 S3        29.92S
LOS ALAMITOS   MOSUNNY   80  62  54 S7        29.88F
FULLERTON      SUNNY     82  59  45 SW6       29.87S
LONG BEACH     SUNNY     81  62  52 NW9       29.88S
L.A. AP        MOSUNNY   73  62  68 W13       29.90S
L.A. DOWNTOWN  SUNNY     79  56  45 VRB5      29.89S

$$

THE INLAND EMPIRE

CITY           SKY/WX    TMP DP  RH WIND       PRES   REMARKS
CORONA         SUNNY     85  55  35 W13       29.89R
CHINO          PTSUNNY   88  50  27 SW10      29.89S
ONTARIO        PTSUNNY   89  40  17 W8        29.89S
SAN BERNARDINO PTSUNNY   90  28  11 W8        29.89S
RIVERSIDE AP   SUNNY     89  39  17 W8        29.89R
RIV CYN CREST    N/A     89  46  22 W2        29.87S
MORENO VALLEY    N/A     90  36  15 S5        29.10S
MARCH ARB      SUNNY     88  26  10 NW5       29.92S
PERRIS           N/A     90  23   8 S1        29.89S
MENIFEE          N/A     92  29  10 W5        29.95S
HEMET EAST       N/A     88  20   8 SW1       29.89S
FRENCH VALLEY  FAIR      84  43  23 SW10      29.92R
TEMECULA         N/A     86  46  24 SW3       29.86R

$$

SAN BERNARDINO AND RIVERSIDE COUNTY MOUNTAINS

CITY           SKY/WX    TMP DP  RH WIND       PRES   REMARKS
BIG BEAR AP    SUNNY     66  23  19 E8        30.22S
ANGELUS OAKS     N/A     71  34  24 CALM      29.89S
PINE COVE        N/A     68  17  14 NW2       29.86S

$$

SOUTHERN DESERT INCLUDING THE COACHELLA VALLEY

CITY           SKY/WX    TMP DP  RH WIND       PRES   REMARKS
PALM SPRINGS   SUNNY     94  26   9 S5        29.88S
THOUSAND PALMS   N/A     92  31  11 SE6       29.83S
PALM DESERT      N/A     95  40  15 CALM      29.80S
THERMAL        SUNNY     93  43  17 SE10      29.83S
BLYTHE         SUNNY     92  43  18 VRB3      29.87S
IMPERIAL AP    SUNNY     93  48  21 NE6       29.83S
EL CENTRO NAS  MOSUNNY   94  46  19 CALM      29.84S
YUMA AZ        MOSUNNY   96  37  12 CALM      29.84F
MEXICALI       SUNNY     93  43  17 S5        29.84

$$

UPPER DESERT

CITY           SKY/WX    TMP DP  RH WIND       PRES   REMARKS
VICTORVILLE AP SUNNY     79  27  14 CALM      30.03S
HESPERIA         N/A     78  32  19 CALM      30.08F
APPLE VALLEY     N/A     82  33  17 CALM      30.05F
PALMDALE       SUNNY     80  31  16 CALM      30.02S
LANCASTER      SUNNY     80  30  16 NE3       30.01S
EDWARDS AFB    PTSUNNY   79  31  17 N3        29.99S
DAGGETT        SUNNY     82  28  14 NE5       29.98F
29 PALMS N     MOSUNNY   84  35  17 CALM      30.03S
NEEDLES        SUNNY     91  42  18 SE3       29.90F

$$

REGIONAL REPORTS

CITY           SKY/WX    TMP DP  RH WIND       PRES   REMARKS
SANTA BARBARA  SUNNY     78  48  34 SW9       29.89F
SANDBERG       SUNNY     76  27  16 NE9       30.11F
MT. WILSON       N/A     73  36  25 MISG        N/A
LAS VEGAS NV   MOSUNNY   84  26  12 S5        29.96S
PHOENIX AZ     MOSUNNY   91  46  21 VRB5      29.89S
TIJUANA        SUNNY     75  55  50 W7        29.93

$$

OFFSHORE ISLANDS

CITY           SKY/WX    TMP DP  RH WIND       PRES   REMARKS
CATALINA ARPT  SUNNY     71  60  68 W3        29.95S
SAN CLEMENTE I MOSUNNY   72  60  66 SW7       29.92S
SAN NICOLAS IS MOSUNNY   70  60  70 NW12      29.92F

$$

MARINE AND OFFSHORE BUOY REPORTS

STATION/POSITION SKY/WX   TEMP    WIND        PRES    SWELL
                          AIR SEA DIR/SP/G            HT/PER/DIR
                          (F)     (DEG/KT/KT) (MB)    (FT/S/D)
TANNER BANKS               68 69  320/ 10/ 12 1013.0S  10/310/14
S CLEMENTE BASIN           70 72  300/  6/  8 1012.4F   7/290/14
SAN NICOLAS IS.               68                N/A     7/310/13
SO. S. ROSA ISLA           66 68  330/ 17/ 19 1012.6F   8/12
W. S. BARBARA CH           66 66  320/ 19/ 23 1012.0F   8/310/13
M. S. BARBARA CH           67 69  270/  8/  8 1013.2F
S. MONICA BASIN            69 73  260/  6/  8 1012.6F   5/260/ 9
S PEDRO CHANNEL               72                N/A     3/270/13
DANA POINT                    70                N/A     3/270/14
CMP PENDLETON NS              71                N/A     2/240/11
OCEANSIDE OFFSHR              72                N/A     2/270/12
TORREY PINES OTR              72                N/A     3/270/14
LA JOLLA 1                 70 71  330/  6/  7 1012.7S
MISSION BAY BUOY              72                N/A     3/280/14
SAN DIEGO BAY                 75              1013.0S
POINT LOMA SOUTH              72                N/A     5/280/14

$$




USA.gov is the U.S. government's official web portal to all federal, state and local government web resources and services.